Regional Weather Roundup
Issued by NWS

Home | Current Version | Previous Version | Graphics & Text | Print | Product List | Glossary On
Versions: 1 2 3 4 5 6 7 8 9 10 11 12 13 14 15 16 17 18 19 20 21 22 23 24 25 26 27 28 29 30 31 32 33 34 35 36 37 38 39 40 41 42 43 44 45 46 47 48 49 50
000
ASUS43 KLOT 271908
RWRIL

ILLINOIS REGIONAL WEATHER ROUNDUP
NATIONAL WEATHER SERVICE CHICAGO/ROMEOVILLE IL
200 PM CDT FRI MAY 27 2016

NOTE: "FAIR" INDICATES FEW OR NO CLOUDS BELOW 12,000 FEET WITH NO
SIGNIFICANT WEATHER AND/OR OBSTRUCTIONS TO VISIBILITY.

* THESE STATIONS ARE NOT UNDER NWS QUALITY CONTROL. THEY ALSO MAY NOT
  REPORT WEATHER SUCH AS PRECIPITATION OR FOG.

ILZ001-002-007-009-015-016-024-272000-
NORTHWEST ILLINOIS

CITY           SKY/WX    TMP DP  RH WIND       PRES   REMARKS
MOLINE         LGT RAIN  73  66  78 S10G20    29.79F
STERLING*      LGT RAIN  77  65  66 SE7       29.82S
SAVANNA*       LGT RAIN  73  66  78 S10       29.81S
$$

ILZ003-004-008-010-011-017-018-272000-
NORTH CENTRAL ILLINOIS

CITY           SKY/WX    TMP DP  RH WIND       PRES   REMARKS
ROCKFORD       CLOUDY    80  62  54 S20G25    29.83F HX  81
FREEPORT*      CLOUDY    77  63  61 S21       29.83F
ROCHELLE*      CLOUDY    80  64  56 S20       29.82F HX  82
DE KALB*       CLOUDY    79  65  62 S20G26    29.85F HX  81
$$

ILZ005-006-012>014-019>023-272000-
NORTHEAST ILLINOIS

CITY           SKY/WX    TMP DP  RH WIND       PRES   REMARKS
CHICAGO-OHARE  CLOUDY    81  63  54 S20G25    29.85F HX  82
CHICAGO-MIDWAY CLOUDY    79  64  60 S13G28    29.86F HX  81
AURORA         MOSUNNY   82  65  56 S23G31    29.84F HX  84
LANSING*       CLOUDY    81  64  55 S10G16    29.88F HX  82
JOLIET*        CLOUDY    81  66  59 S13G20    29.86F HX  83
WAUKEGAN       LGT RAIN  74  65  73 SE10      29.86F
DUPAGE AIRPORT CLOUDY    81  63  54 S21       29.84F HX  82
KANKAKEE*      PTSUNNY   83  66  55 S13G20    29.88F HX  85
WHEELING       CLOUDY    80  62  54 S15       29.86F HX  81
MORRIS*        CLOUDY    80  62  54 S16G23    29.84F HX  81
ROMEOVILLE*    CLOUDY    81  60  49 S23       29.86F HX  81
NORTHERLY ISL    N/A     74  63  68 S12         N/A
NORTHERLY ISL    N/A     74  63  68 S12         N/A
$$

LMZ740>746-272000-
SOUTHERN LAKE MICHIGAN

STATION/POSITION SKY/WX   TEMP    WIND        PRES    VSBY  WAVE
                          AIR SEA DIR/SP/G                  HT/PER
                          (F)     (DEG/KT/KT) (MB)    (MI)  (FT/S)
SOUTHERN BUOY              56 50  130/  8/  8 1012.3F         1/ 3
WILMETTE HARBOR            62 58  150/ 14/ 19   N/A           1/ 2
HARRISON CRIB              70     120/ 15/ 16   N/A
BURNHAM HARBOR             75     180/  7/ 16   N/A
CALUMET HARBOR             81     170/ 12/ 18 1011.4F
BURNS HARBOR               80     190/ 11/ 19 1013.2F
MICHIGAN CITY              78     180/ 13/ 16   N/A
MICHIGAN CITY 6N           72 60  180/  6/ 10   N/A           1
ST. JOSEPH                 72 65  160/  6/  8   N/A           1
$$

ILZ025>027-034>036-040-047-049-050-058-095>099-272000-
WEST-CENTRAL ILLINOIS

CITY           SKY/WX    TMP DP  RH WIND       PRES   REMARKS
QUINCY         CLOUDY    76  68  76 S12       29.79S
GALESBURG*     CLOUDY    72  66  83 S9G16     29.81F
MACOMB*        CLOUDY    72  68  87 S14       29.83S
JACKSONVILLE*  CLOUDY    76  68  76 S16G23    29.82S
PITTSFIELD*    CLOUDY    76  70  80 S14G22    29.82S
$$

ILZ028>032-037-038-041>044-048-051>054-059>061-272000-
CENTRAL ILLINOIS

CITY           SKY/WX    TMP DP  RH WIND       PRES   REMARKS
PONTIAC        CLOUDY    82  66  57 S25G31    29.86F HX  84
BLOOMINGTON    PTSUNNY   77  68  73 S24       29.87F
DECATUR        PTSUNNY   78  66  66 S20G26    29.87S HX  80
PEORIA         CLOUDY    76  66  71 S16       29.83F
LACON*         CLOUDY    75  64  68 S17G23    29.83R
LINCOLN*       CLOUDY    79  70  72 S12G23    29.84S HX  82
SPRINGFIELD    CLOUDY    80  68  66 S14G28    29.84S HX  83
TAYLORVILLE    CLOUDY    75  68  79 S15G23    29.87R
$$

ILZ033-039-045-046-055>057-062-063-272000-
EAST-CENTRAL ILLINOIS

CITY           SKY/WX    TMP DP  RH WIND       PRES   REMARKS
CHAMPAIGN      CLOUDY    81  65  58 S21G28    29.89F HX  83
RANTOUL*       CLOUDY    82  66  58 S18       29.89F HX  84
MATTOON        MOSUNNY   78  66  66 S18       29.89S HX  80
PARIS*         CLOUDY    83  69  63 S12       29.91F HX  86
$$

ILZ079-100>102-272000-
SOUTHWEST ILLINOIS

CITY           SKY/WX    TMP DP  RH WIND       PRES   REMARKS
ALTON          CLOUDY    73  66  78 S14       29.86S
BELLEVILLE     CLOUDY    74  74  99 VRB6G18   29.85F
CAHOKIA*       CLOUDY    76  68  76 S13G20    29.84F
SPARTA*        CLOUDY    76  70  84 S9G18     29.88S
$$

ILZ064>066-069>071-074>076-080>082-084>086-088>090-092>094-272000-
SOUTH-CENTRAL ILLINOIS

CITY           SKY/WX    TMP DP  RH WIND       PRES   REMARKS
CARBONDALE     PTSUNNY   78  69  73 S14       29.88F HX  80
CAIRO*         CLOUDY    78  72  79 SE14      29.89F HX  81
EFFINGHAM*     CLOUDY    78  71  79 SE12G18   29.92R
MARION         PTSUNNY   81  72  74 S14       29.90F HX  84
MT. VERNON     CLOUDY    79  70  73 S8        29.90F HX  81
CENTRALIA*     CLOUDY    77  72  85 S13       29.88F
SALEM*         CLOUDY    75  70  83 S10       29.90S
METROPOLIS*    MOSUNNY   82  72  71 S17G23    29.91F HX  87
$$

ILZ067-068-072-073-078-083-087-091-272000-
SOUTHEAST ILLINOIS

CITY           SKY/WX    TMP DP  RH WIND       PRES   REMARKS
LAWRENCEVILLE  PTSUNNY   84  68  58 S21       29.93F HX  87
FLORA*         PTSUNNY   79  70  74 S14       29.91F HX  82
FAIRFIELD*     CLOUDY    79  70  73 S10       29.89F HX  82
HARRISBURG*    HVY RAIN  76  72  86 S14       29.92F
ROBINSON*      PTSUNNY   80  69  68 S15G21    29.92F HX  82
CARMI*         MOSUNNY   82  72  71 S16G24    29.91F HX  86
$$

ABBREVIATIONS USED IN REMARKS
   TC - TEMPERATURE IN CELSIUS
  WCI - WIND CHILL INDEX
   HX - HEAT INDEX
  VSB - VISIBILITY
$$





USA.gov is the U.S. government's official web portal to all federal, state and local government web resources and services.